FW2439 Weather Reports


time (UTC)temp
F
wind
direction
speed
knots
gust
knots
rain 1hr
in
rain 24hr
in
rain mn
in
humidity
%
barometer
mb
20260901030053 76 237 0.0 0.0 0.00 0.00 0.00 91 1017.5
20260901024554 77 237 0.0 0.0 0.00 0.00 0.00 91 1017.5
20260901023055 77 237 0.0 0.0 0.00 0.00 0.00 91 1017.5
20260901021556 78 237 0.0 0.0 0.00 0.00 0.00 90 1017.3
20260901020053 78 237 0.0 0.0 0.00 0.00 0.00 89 1017.2
20260901014551 79 237 0.0 0.0 0.00 0.00 0.00 88 1016.9
20260901013102 80 237 0.0 0.0 0.00 0.00 0.00 87 1016.8
20260901011552 81 237 0.0 0.0 0.00 0.00 0.00 86 1016.6
20260901010054 82 237 0.0 0.0 0.00 0.00 0.00 83 1016.4
20260901004557 83 237 0.0 0.0 0.00 0.00 0.00 81 1016.3
20260901003056 84 237 0.0 0.0 0.00 0.00 0.00 78 1016.4
20260901001548 86 237 0.0 0.0 0.00 0.00 0.00 75 1016.4
20260901000049 87 237 0.0 0.0 0.00 0.00 0.00 72 1016.5
20260831234546 88 237 0.0 0.0 0.00 0.00 0.00 70 1016.6
20260831233044 90 237 0.0 0.0 0.00 0.00 0.00 66 1016.7
20260831231551 91 236 0.0 0.0 0.00 0.00 0.00 64 1016.7
20260831230045 93 237 0.0 0.0 0.00 0.00 0.00 62 1016.8
20260831224540 95 236 0.0 0.9 0.00 0.00 0.00 58 1016.9
20260831223040 95 245 0.0 1.7 0.00 0.00 0.00 57 1016.7
20260831221533 94 235 0.0 0.9 0.00 0.00 0.00 63 1017.1
20260831220033 92 235 0.0 0.9 0.00 0.00 0.00 66 1017.0
20260831214533 91 235 0.0 0.0 0.00 0.00 0.00 67 1017.1
20260831213039 92 235 0.0 0.9 0.00 0.00 0.00 62 1017.0
20260831211531 94 211 0.0 0.9 0.00 0.00 0.00 59 1017.1
20260831210028 95 278 0.0 2.6 0.00 0.00 0.00 57 1017.1
20260831204533 96 223 0.0 3.5 0.00 0.00 0.00 55 1017.3
20260831203029 95 248 0.0 3.5 0.00 0.00 0.00 51 1017.3
20260831201535 96 322 0.9 3.5 0.00 0.00 0.00 53 1017.4
20260831200026 96 210 0.0 4.3 0.00 0.00 0.00 54 1017.5
20260831194545 96 239 0.0 2.6 0.00 0.00 0.00 54 1017.9
20260831193021 95 197 0.9 3.5 0.00 0.00 0.00 55 1018.1
20260831191521 96 226 0.9 2.6 0.00 0.00 0.00 53 1018.3
20260831190019 94 227 0.9 4.3 0.00 0.00 0.00 55 1018.4
20260831184514 93 242 0.0 6.1 0.00 0.00 0.00 56 1018.6
20260831183012 93 205 0.0 4.3 0.00 0.00 0.00 59 1018.9
20260831181508 92 227 0.0 2.6 0.00 0.00 0.00 62 1019.1
20260831180007 91 259 0.0 0.9 0.00 0.00 0.00 65 1019.4
20260831174513 90 252 0.0 0.9 0.00 0.00 0.00 67 1019.7
20260831173006 90 251 0.0 1.7 0.00 0.00 0.00 64 1019.8
20260831171505 91 177 0.0 2.6 0.00 0.00 0.00 64 1019.8
20260831170006 91 340 0.9 3.5 0.00 0.00 0.00 64 1020.0
20260831164504 91 224 0.9 2.6 0.00 0.00 0.00 65 1020.0
20260831163003 92 219 0.9 3.5 0.00 0.00 0.00 63 1020.1
20260831161500 91 210 0.0 6.1 0.00 0.00 0.00 66 1020.1
20260831160058 91 205 0.9 3.5 0.00 0.00 0.00 67 1020.0
20260831154557 90 220 0.9 5.2 0.00 0.00 0.00 67 1020.1
20260831153112 90 235 0.0 4.3 0.00 0.00 0.00 69 1019.9
20260831151555 89 192 0.0 3.5 0.00 0.00 0.00 69 1019.9
20260831150048 88 216 1.7 7.0 0.00 0.00 0.00 70 1020.0
20260831144607 87 248 0.9 3.5 0.00 0.00 0.00 75 1019.9
20260831143041 85 221 0.0 3.5 0.00 0.00 0.00 79 1019.9
20260831141536 82 224 1.7 4.3 0.00 0.00 0.00 83 1019.8
20260831140035 80 233 0.0 0.9 0.00 0.00 0.00 90 1019.8
20260831134529 77 227 0.0 2.6 0.00 0.00 0.00 96 1019.8
20260831133027 74 223 0.0 0.9 0.00 0.00 0.00 99 1019.8
20260831131521 73 223 0.0 0.0 0.00 0.00 0.00 100 1019.7
20260831130022 72 223 0.0 0.0 0.00 0.00 0.00 100 1019.6
20260831124520 71 223 0.0 0.0 0.00 0.00 0.00 100 1019.6
20260831123016 70 223 0.0 0.0 0.00 0.00 0.00 100 1019.4
20260831121516 70 223 0.0 0.0 0.00 0.00 0.00 100 1019.3
20260831120015 69 223 0.0 0.0 0.00 0.00 0.00 99 1019.3
20260831114518 69 223 0.0 0.0 0.00 0.00 0.00 99 1019.0
20260831113013 69 223 0.0 0.0 0.00 0.00 0.00 99 1018.8
20260831111511 69 223 0.0 0.0 0.00 0.00 0.00 99 1018.7
20260831110015 70 223 0.0 0.0 0.00 0.00 0.00 99 1018.7
20260831104522 70 223 0.0 0.0 0.00 0.00 0.00 99 1018.4
20260831103006 70 223 0.0 0.0 0.00 0.00 0.00 99 1018.3
20260831101505 70 223 0.0 0.0 0.00 0.00 0.00 99 1018.2
20260831100005 70 223 0.0 0.0 0.00 0.00 0.00 99 1018.3
20260831094505 70 223 0.0 0.0 0.00 0.00 0.00 99 1018.2
20260831093006 71 223 0.0 0.0 0.00 0.00 0.00 99 1017.9
20260831091501 71 223 0.0 0.0 0.00 0.00 0.00 99 1017.9
20260831090101 71 223 0.0 0.0 0.00 0.00 0.00 98 1017.9
20260831084635 71 223 0.0 0.0 0.00 0.00 0.00 98 1017.9
20260831083058 71 223 0.0 0.0 0.00 0.00 0.00 98 1017.7
20260831081557 71 223 0.0 0.0 0.00 0.00 0.00 98 1017.6
20260831080110 71 223 0.0 0.0 0.00 0.00 0.00 98 1017.7
20260831074603 71 223 0.0 0.0 0.00 0.00 0.00 98 1017.6
20260831073055 71 223 0.0 0.0 0.00 0.00 0.00 97 1017.6
20260831071605 72 223 0.0 0.0 0.00 0.00 0.00 97 1017.6
20260831070052 72 223 0.0 0.0 0.00 0.00 0.00 97 1017.6
20260831064551 72 223 0.0 0.0 0.00 0.00 0.00 97 1017.8
20260831063049 72 223 0.0 0.0 0.00 0.00 0.00 97 1017.9
20260831061547 73 223 0.0 0.0 0.00 0.00 0.00 97 1018.0
20260831060058 73 223 0.0 0.0 0.00 0.00 0.00 97 1017.9
20260831054545 73 223 0.0 0.0 0.00 0.00 0.00 96 1017.9
20260831053053 73 223 0.0 0.0 0.00 0.00 0.00 96 1017.9
20260831051543 73 223 0.0 0.0 0.00 0.00 0.00 95 1017.8
20260831050048 74 223 0.0 0.0 0.00 0.00 0.00 95 1017.8
20260831044537 74 223 0.0 0.0 0.00 0.00 0.00 95 1017.9
20260831043043 75 223 0.0 0.0 0.00 0.00 0.00 94 1017.9
20260831041551 75 223 0.0 0.0 0.00 0.00 0.00 94 1017.9
20260831040036 75 223 0.0 0.0 0.00 0.00 0.00 94 1017.9
20260831034538 76 223 0.0 0.0 0.00 0.00 0.00 93 1017.8
20260831033035 76 223 0.0 0.0 0.00 0.00 0.00 93 1017.8
20260831031540 76 223 0.0 0.0 0.00 0.00 0.00 93 1017.8